Weather History for Cancun, Mexico

Change the Weather History Date:

Sunday, September 8, 2013

  Actual Average Record
Temperature  
Mean Temperature 80 °F -  
Max Temperature 86 °F 89 °F 95 °F (1999)
Min Temperature 75 °F 73 °F 71 °F (1997)
Cooling Degree Days 16    
Growing Degree Days 30 (Base 50)    
Moisture  
Dew Point 75 °F    
Average Humidity 85    
Maximum Humidity 100    
Minimum Humidity 70    
Precipitation  
Precipitation 0.15 in - - ()
Sea Level Pressure  
Sea Level Pressure 29.87 in    
Wind  
Wind Speed 5 mph ()    
Max Wind Speed 13 mph    
Max Gust Speed -    
Visibility 6.8 miles    
Events Rain    
Averages and records for this station are not official NWS values.
T = Trace of Precipitation, MM = Missing Value Source: Averaged Metar Reports

Daily Weather History Graph

Daily Weather History Graph

Search for Another Location

Airport:

Trip Planner

Search our weather history database for the weather conditions in past years. The results will help you decide how hot, cold, wet, or windy it might be!

Date:

Astronomy

Sep. 08, 2013 Rise Set
Actual Time 6:33 AM CDT 6:56 PM CDT
Civil Twilight 6:10 AM CDT 7:19 PM CDT
Nautical Twilight 5:44 AM CDT 7:45 PM CDT
Astronomical Twilight 5:18 AM CDT 8:11 PM CDT
Moon 9:18 AM CDT (9/8) 9:06 PM CDT (9/8)
Length of Visible Light 13h 08m
Length of Day
12h 23m
Waxing Crescent, 11% of the Moon is Illuminated
Sep 8
Waxing Crescent
Sep 12
First Quarter
Sep 19
Full
Sep 26
Last Quarter
Oct 4
New

Hourly Weather History & Observations

Time (CDT) Temp. Heat Index Dew Point Humidity Pressure Visibility Wind Dir Wind Speed Gust Speed Precip Events Conditions
12:49 AM 80.6 °F 86.2 °F 75.2 °F 84% 29.89 in 7.0 mi ENE 4.6 mph - N/A   Scattered Clouds
1:44 AM 80.6 °F 86.2 °F 75.2 °F 84% 29.87 in 7.0 mi East 5.8 mph - N/A   Scattered Clouds
2:44 AM 80.6 °F 87.1 °F 77.0 °F 89% 29.86 in 7.0 mi East 3.5 mph - N/A   Scattered Clouds
3:40 AM 80.6 °F 86.2 °F 75.2 °F 84% 29.85 in 7.0 mi ENE 3.5 mph - N/A   Scattered Clouds
4:43 AM 78.8 °F - 75.2 °F 89% 29.86 in 7.0 mi Calm Calm - N/A   Scattered Clouds
5:43 AM 77.0 °F - 75.2 °F 94% 29.86 in 7.0 mi Calm Calm - N/A   Scattered Clouds
6:44 AM 75.2 °F - 73.4 °F 94% 29.87 in 7.0 mi Calm Calm - N/A   Scattered Clouds
7:48 AM 82.4 °F 90.9 °F 77.0 °F 84% 29.88 in 7.0 mi ESE 5.8 mph - N/A   Scattered Clouds
8:46 AM 86.0 °F 96.9 °F 77.0 °F 74% 29.89 in 7.0 mi ESE 9.2 mph - N/A   Scattered Clouds
9:49 AM 86.0 °F 95.1 °F 75.2 °F 70% 29.90 in 7.0 mi ESE 9.2 mph - N/A   Scattered Clouds
10:43 AM 86.0 °F 96.9 °F 77.0 °F 74% 29.89 in 7.0 mi ESE 12.7 mph - N/A   Mostly Cloudy
11:40 AM 84.2 °F 94.1 °F 77.0 °F 79% 29.88 in 7.0 mi East 9.2 mph - N/A   Mostly Cloudy
12:41 PM 86.0 °F 96.9 °F 77.0 °F 74% 29.88 in 7.0 mi East 8.1 mph - N/A   Mostly Cloudy
1:40 PM 86.0 °F 96.9 °F 77.0 °F 74% 29.84 in 7.0 mi East 11.5 mph - N/A   Mostly Cloudy
2:41 PM 84.2 °F 92.3 °F 75.2 °F 74% 29.83 in 7.0 mi ESE 9.2 mph - N/A   Mostly Cloudy
3:48 PM 80.6 °F 84.6 °F 71.6 °F 74% 29.83 in 6.0 mi ESE 12.7 mph - N/A   Mostly Cloudy
4:40 PM 78.8 °F - 73.4 °F 83% 29.83 in 6.0 mi SSE 6.9 mph - N/A   Overcast
5:41 PM 78.8 °F - 75.2 °F 89% 29.85 in 6.0 mi Calm Calm - N/A Rain Light Rain
6:45 PM 77.0 °F - 75.2 °F 94% 29.85 in 6.0 mi WNW 4.6 mph - N/A Rain Light Rain
7:46 PM 77.0 °F - 75.2 °F 94% 29.86 in 6.0 mi NNW 4.6 mph - N/A Rain Light Rain
8:13 PM 77.0 °F - 75.2 °F 94% 29.87 in 7.0 mi NNW 3.5 mph - N/A   Overcast
8:44 PM 77.0 °F - 75.2 °F 94% 29.88 in 7.0 mi Calm Calm - N/A   Overcast
9:48 PM 77.0 °F - 75.2 °F 94% 29.87 in 7.0 mi NW 5.8 mph - N/A   Overcast
10:47 PM 77.0 °F - 75.2 °F 94% 29.90 in 7.0 mi NNW 5.8 mph - N/A   Overcast
11:46 PM 77.0 °F - 77.0 °F 100% 29.89 in 7.0 mi Calm Calm - N/A   Overcast